GEFSMW_850_meantemp_000.txt.gz
Temperature
16 17 17 17 18 19 19 19 20 20 19 19 18 18 18 18 18 18 18 17 17 17 17 18 18 18 18 18 17 17 17 17 17 17 17 17 17 17 18 18 18 18 18
18 18 18 18 19 18 18 19 20 19 18 18 18 18 18 17 17 17 17 17 17 17 17 18 18 18 18 17 17 16 16 16 16 16 16 15 16 17 18 19 19 19 18
18 19 21 20 18 18 19 20 21 20 19 18 18 18 17 17 17 16 16 17 18 18 18 18 17 17 16 16 17 16 16 15 15 16 15 15 16 16 17 18 19 19 18
16 16 16 17 17 18 18 19 20 21 20 20 18 17 16 16 16 16 15 16 16 17 17 17 17 17 16 16 16 15 15 15 15 15 15 15 15 15 16 17 18 18 18
17 18 17 17 18 18 18 19 19 20 20 20 18 17 16 15 14 14 15 15 16 16 16 16 16 16 16 16 15 15 15 14 14 15 15 15 15 15 15 16 16 17 17
19 19 19 18 17 16 16 16 17 18 19 18 17 16 15 15 14 15 15 15 15 15 16 16 16 15 15 15 14 14 14 14 14 14 14 14 14 15 15 16 16 16 17
18 18 18 18 17 16 16 15 16 17 17 17 17 15 15 15 15 14 15 15 15 15 15 15 15 14 14 14 14 13 14 14 14 14 14 14 14 14 14 14 15 15 15
16 16 16 15 15 14 15 15 15 15 14 14 15 15 14 15 14 14 14 14 14 15 15 15 14 14 14 14 14 14 14 13 13 13 13 13 14 14 14 14 14 14 15
17 17 16 15 15 15 14 14 14 14 14 14 14 14 14 14 13 13 13 13 13 13 14 14 14 14 14 14 14 14 13 13 13 13 13 13 13 13 13 13 14 14 14
17 16 16 15 15 15 15 15 14 14 14 14 14 14 14 14 13 13 13 13 13 13 13 13 13 13 13 13 13 13 13 13 13 13 13 13 13 13 13 13 13 13 13
16 15 15 15 15 14 14 14 14 13 13 13 14 14 14 13 13 13 13 13 13 13 13 12 12 12 13 13 13 13 13 13 13 13 13 13 13 13 13 13 13 13 13
15 14 14 14 14 14 13 13 13 13 13 14 14 14 14 13 13 13 13 13 13 13 13 12 12 12 12 12 12 12 12 12 12 12 12 12 12 12 12 12 12 13 13
14 13 13 14 14 13 12 11 12 13 13 14 14 14 13 13 13 13 13 13 13 13 13 12 12 12 12 12 12 12 11 11 11 11 11 11 11 11 11 12 12 13 13
12 12 12 13 13 12 12 11 12 13 13 14 14 13 13 13 13 13 13 13 13 13 13 12 11 11 11 11 11 11 11 11 11 11 11 11 11 11 11 11 12 12 12
12 11 11 12 11 11 12 11 12 13 13 13 13 13 13 13 13 13 12 12 12 13 13 12 11 11 11 11 11 11 11 11 11 11 11 11 11 11 11 11 11 11 11
12 12 11 11 11 11 11 12 13 12 12 12 12 12 13 13 13 12 12 12 12 12 12 12 12 12 11 11 11 11 11 11 10 11 11 11 11 11 11 11 11 11 11
12 11 11 12 11 11 12 12 12 11 12 12 12 12 12 12 13 12 12 12 12 12 12 12 12 12 12 11 11 11 11 11 11 11 11 11 11 11 11 11 11 11 11
13 12 11 11 11 11 11 11 12 12 12 12 12 12 12 12 12 12 12 12 12 12 12 11 12 12 11 11 11 11 11 11 11 11 11 11 11 11 11 11 11 11 12
13 12 12 11 11 11 11 11 11 12 12 12 12 12 11 11 11 11 12 12 12 11 11 11 11 11 11 11 11 11 11 11 11 11 11 11 10 10 11 11 11 11 11
14 13 12 11 11 11 11 11 11 11 11 11 11 11 11 11 11 11 11 11 11 11 11 11 11 11 11 11 11 11 11 11 11 10 10 10 10 10 10 10 11 11 11
14 13 12 11 11 10 10 10 10 10 11 11 11 10 10 10 10 10 10 11 11 11 11 11 11 10 10 10 10 10 10 10 10 10 10 9 9 9 9 10 10 10 10
14 13 12 11 11 10 10 10 10 10 10 10 10 10 10 10 10 10 10 10 11 10 10 10 10 10 10 10 10 10 10 10 9 9 9 9 9 9 9 9 9 9 9
14 13 12 11 11 11 11 11 10 10 10 10 10 10 10 10 10 10 10 10 10 10 10 10 10 10 10 9 9 9 9 9 9 9 8 8 9 9 9 8 8 9 9
14 13 12 11 11 11 11 11 10 10 10 9 9 9 9 9 9 10 10 10 10 9 9 10 10 10 9 9 9 8 8 9 8 8 8 8 8 8 8 8 8 8 8
14 13 12 12 11 11 11 11 10 10 9 9 8 8 9 9 9 9 9 10 10 10 10 10 9 9 9 9 8 8 9 9 9 9 8 8 8 8 8 8 7 7 7
14 13 12 12 12 11 11 11 10 10 9 9 8 8 8 8 9 9 9 9 10 9 9 9 9 9 9 9 9 9 9 8 8 8 8 8 8 7 7 7 7 7 6

GEFSMW_850_meantemp_006.txt.gz
Temperature
18 18 18 18 19 19 19 19 20 20 20 20 20 19 19 18 18 18 19 19 19 19 18 17 17 17 17 18 18 18 17 17 17 17 18 19 19 19 19 19 19 19 19
18 18 18 18 18 18 18 18 19 19 19 20 21 21 20 20 19 18 19 19 20 19 19 18 17 17 17 17 17 17 17 17 17 17 18 19 20 20 19 19 18 18 19
19 19 19 18 18 18 17 17 17 17 18 19 19 20 19 19 19 18 18 19 19 19 18 17 16 16 16 17 17 17 16 17 16 16 16 17 19 19 19 19 18 18 18
20 20 20 19 19 18 18 17 17 17 17 17 17 18 18 18 19 18 18 18 18 17 16 16 15 15 16 16 16 16 16 16 16 16 15 15 16 15 17 18 18 18 17
20 20 20 19 19 19 18 18 17 17 17 17 17 17 17 17 17 16 17 17 16 15 15 15 15 15 15 15 16 16 16 16 15 16 15 15 15 15 15 16 17 17 17
20 20 19 19 18 18 18 17 17 16 16 16 16 16 16 16 15 15 15 15 15 14 14 14 14 14 15 15 15 15 15 15 15 15 15 15 15 15 15 15 16 16 17
20 19 19 18 17 17 17 16 16 16 15 15 15 15 15 15 15 15 14 14 14 14 14 14 14 15 15 15 15 15 15 15 15 15 15 15 15 15 15 15 15 16 17
20 19 18 17 16 16 16 16 15 15 15 14 14 15 15 15 14 14 14 14 14 14 14 14 14 15 15 15 15 15 15 15 15 14 15 15 15 15 15 15 15 16 17
20 19 18 17 16 15 15 15 15 15 14 14 14 14 14 14 14 14 14 13 14 14 14 14 14 14 14 14 14 14 14 14 14 14 14 14 14 14 14 14 14 15 16
20 19 17 16 15 14 14 14 14 14 14 14 14 13 13 13 13 13 13 13 13 13 13 13 13 13 13 13 13 13 14 14 14 14 14 14 14 14 14 14 14 14 15
19 18 17 16 15 14 13 13 13 13 13 13 13 12 12 12 12 12 12 12 13 13 13 12 12 12 12 12 12 13 13 13 13 13 13 13 13 13 14 14 14 14 14
18 17 16 15 14 14 13 13 13 13 13 12 12 11 11 11 11 11 12 12 12 12 12 12 12 12 12 12 12 12 12 12 12 12 12 12 12 12 12 13 13 13 13
18 17 16 15 14 14 13 13 13 12 12 12 11 11 11 11 11 11 12 12 12 12 12 12 11 12 12 12 12 12 12 12 12 12 12 12 12 12 12 12 13 13 13
17 17 16 15 14 14 13 13 12 12 12 12 12 11 11 11 11 11 11 12 12 12 11 11 11 11 11 11 11 11 11 11 11 11 11 11 11 11 11 12 12 13 13
18 17 16 15 14 13 13 13 12 12 12 12 12 11 11 11 11 11 11 12 11 11 11 11 11 11 11 11 11 11 11 11 11 11 11 11 11 12 12 12 12 12 13
18 17 16 15 14 13 13 13 13 12 12 12 12 12 11 11 11 11 11 11 11 11 11 11 11 11 12 12 11 11 11 11 11 11 11 11 11 11 12 12 12 12 12
18 17 16 15 14 13 13 13 13 12 12 12 12 12 12 11 11 11 11 11 11 11 11 11 11 11 12 12 11 11 11 11 11 11 11 12 11 11 11 11 11 11 12
17 17 16 15 14 13 13 12 12 13 12 12 12 12 12 12 11 11 11 12 11 11 11 11 11 12 12 11 11 11 11 11 11 10 10 10 11 11 11 11 11 11 11
17 16 15 15 14 13 13 12 12 12 13 12 12 12 12 12 11 11 11 12 12 11 11 11 11 12 11 11 11 11 11 10 10 10 10 10 10 11 11 10 11 11 11
17 16 15 14 14 13 13 12 12 12 12 12 12 12 12 12 12 11 11 11 11 11 11 11 11 11 11 11 11 11 11 10 10 10 10 10 10 10 10 10 10 10 10
16 16 15 14 13 13 12 12 12 12 12 12 11 11 12 12 11 11 11 11 11 11 11 11 11 11 11 11 11 11 11 11 11 11 11 10 10 10 10 9 9 10 10
16 16 15 14 13 12 12 12 12 12 12 11 11 11 11 12 11 11 11 11 11 11 10 10 10 10 10 10 10 10 10 10 10 10 10 9 9 9 9 9 9 9 10
15 15 15 14 12 12 11 12 12 11 11 11 11 11 11 11 11 11 11 11 10 11 10 10 10 10 10 10 10 10 10 10 9 9 9 9 9 9 8 8 9 9 10
15 15 15 14 13 12 11 11 11 11 11 11 11 11 11 11 10 11 11 11 10 11 11 10 10 10 10 10 9 9 9 9 9 9 9 9 9 9 8 9 9 9 8
15 15 15 15 14 12 12 11 11 11 11 11 11 11 11 11 11 11 11 10 11 11 11 10 10 10 10 10 9 9 9 9 9 9 9 10 10 10 9 9 9 8 8
15 14 14 14 14 12 12 11 11 11 11 11 11 11 11 11 11 10 10 10 10 10 10 10 10 10 10 9 9 9 9 9 9 9 10 10 10 10 10 10 9 8 7

GEFSMW_850_meantemp_012.txt.gz
Temperature
22 21 21 21 20 20 20 20 19 19 19 19 19 19 19 19 19 19 19 19 19 19 19 19 18 18 18 19 19 19 19 19 19 19 19 19 19 19 20 20 20 20 20
22 21 20 20 20 20 20 19 19 19 19 19 18 19 19 19 19 19 19 19 19 19 18 18 18 18 18 18 18 19 19 19 19 18 18 18 18 19 20 21 21 20 20
23 22 22 21 21 21 20 20 19 19 19 18 18 18 18 18 18 18 19 19 19 19 18 18 18 18 17 18 18 18 18 18 18 18 18 17 17 19 20 20 20 20 20
24 23 23 22 21 21 20 20 19 18 18 17 17 17 17 17 17 18 18 18 18 18 18 18 18 17 17 17 17 17 17 17 17 17 17 17 17 17 18 19 19 19 19
24 24 23 22 21 21 20 19 19 18 17 17 16 16 16 16 17 17 17 17 17 17 17 17 17 17 17 17 16 16 16 16 16 16 16 16 16 16 16 17 18 18 18
24 24 23 22 21 20 20 19 18 17 17 16 16 16 16 16 16 16 16 16 17 17 17 16 16 16 16 16 16 15 15 15 15 15 15 15 15 16 16 16 17 17 18
25 24 23 22 21 20 19 18 17 17 16 16 16 16 16 16 16 16 16 16 16 16 16 16 16 15 15 15 15 15 15 14 14 14 15 15 15 15 16 16 16 16 17
25 24 23 22 21 20 19 18 17 16 16 15 15 15 15 15 15 15 15 15 15 16 16 15 15 15 15 15 14 14 14 14 14 14 14 15 15 15 15 16 16 16 17
25 24 24 23 21 20 19 17 16 15 15 15 15 15 14 14 14 14 15 15 15 15 15 15 15 15 14 14 14 14 14 14 14 14 14 15 15 15 15 15 15 16 16
25 24 23 22 21 19 18 17 15 15 15 14 14 14 14 13 14 14 14 14 14 14 14 14 14 14 14 14 14 14 14 14 14 14 14 15 15 15 15 15 15 15 15
24 24 23 21 20 19 18 16 15 15 14 14 14 13 13 13 13 13 13 13 13 13 14 13 14 14 14 14 14 14 14 14 14 14 14 14 14 14 15 15 15 15 15
23 23 22 21 20 19 18 16 15 15 14 14 13 13 13 12 12 12 12 12 12 12 12 13 13 13 13 13 14 14 14 14 14 14 14 14 14 14 14 14 14 14 14
23 23 22 21 20 19 17 16 16 15 14 13 13 13 12 12 12 12 12 12 12 12 12 12 12 13 13 13 13 13 13 13 13 13 13 13 13 13 13 13 14 14 14
23 22 21 20 19 18 17 16 15 15 14 14 13 12 12 12 12 11 11 11 11 11 11 12 12 12 12 13 13 13 13 13 12 12 13 13 13 13 13 13 13 14 14
22 22 21 20 19 18 17 16 15 15 14 14 13 13 12 12 12 12 12 11 11 11 11 11 11 12 12 12 12 12 12 12 12 12 13 12 12 13 13 13 13 13 13
22 22 21 20 19 18 17 16 16 15 14 14 13 13 12 12 12 12 12 11 11 11 11 11 11 12 12 12 12 12 12 12 12 12 12 12 12 12 12 12 13 13 13
21 21 21 20 19 18 17 16 15 15 14 14 13 13 13 12 12 12 12 11 11 11 11 11 12 12 12 12 12 11 12 12 12 12 12 12 12 12 12 12 12 12 12
20 20 20 20 19 18 17 16 16 15 14 14 13 13 13 12 12 12 12 12 11 11 11 12 12 12 12 12 11 11 11 11 11 11 11 12 12 12 12 11 11 12 12
19 19 20 19 19 18 17 17 16 15 14 14 14 13 13 13 12 12 12 12 12 12 12 12 12 12 12 12 12 11 11 11 11 11 11 11 11 11 11 11 11 12 11
17 18 19 19 19 18 17 16 16 15 14 14 14 13 13 13 13 12 12 12 12 12 12 12 12 12 12 12 12 12 11 11 11 11 11 11 11 11 11 11 11 11 12
16 17 17 18 18 18 17 16 16 15 15 14 14 13 13 13 13 13 12 12 12 12 12 12 12 12 12 12 12 12 12 11 11 11 11 11 11 11 11 11 11 11 11
14 14 15 15 17 17 16 16 15 15 15 14 14 13 13 13 12 12 12 12 12 11 11 11 11 11 12 12 12 12 12 12 11 11 11 11 11 11 10 11 10 11 11
12 12 13 13 14 15 15 15 15 14 14 14 14 13 13 13 12 12 12 12 12 11 11 11 11 11 11 12 12 11 11 11 11 11 11 11 11 10 10 10 10 10 10
11 11 11 11 12 13 14 14 14 14 14 13 13 13 13 12 12 12 12 12 11 11 11 11 11 11 11 11 11 11 11 11 11 11 11 11 10 10 10 10 10 10 9
10 10 10 10 11 12 12 13 14 13 13 13 13 13 12 12 12 12 12 12 12 12 12 11 11 11 11 11 11 11 11 11 10 10 11 10 10 10 10 10 10 10 9
10 10 10 10 10 10 11 11 13 13 13 13 13 12 12 12 12 12 11 11 12 12 12 12 11 11 11 11 11 11 11 11 11 10 10 11 11 11 11 11 10 9 9

GEFSMW_850_meantemp_018.txt.gz
Temperature
22 22 22 22 21 21 21 21 21 20 20 20 19 19 19 19 19 19 19 19 19 19 19 19 19 18 18 18 19 19 18 18 18 18 18 18 18 18 19 19 19 19 19
22 22 22 22 21 21 21 21 21 21 20 20 19 19 19 19 18 19 19 18 18 18 18 18 18 18 18 18 18 18 18 18 18 18 18 17 18 19 19 19 19 19 19
22 22 22 22 22 21 21 21 21 21 20 20 19 18 18 18 18 18 18 18 18 18 17 17 17 17 17 17 18 18 18 18 18 18 17 16 16 17 18 18 18 18 18
22 22 22 22 22 22 22 21 21 21 20 19 18 18 17 17 17 17 17 17 17 17 17 17 17 17 17 17 17 17 17 17 17 17 17 16 16 16 16 17 17 17 18
23 23 23 23 23 22 22 21 21 20 20 19 18 17 17 17 16 16 16 16 17 16 16 16 16 16 16 16 16 16 16 16 16 16 16 16 15 15 15 15 16 17 17
24 24 23 23 22 22 21 21 21 20 19 18 17 17 16 16 16 16 16 16 16 16 16 16 16 16 16 16 16 16 16 16 16 15 15 15 15 15 15 15 15 16 16
24 24 23 23 22 22 21 21 20 20 19 18 17 16 16 16 16 15 15 15 15 15 15 15 15 15 16 16 16 15 16 16 15 15 15 15 14 14 14 14 14 15 15
24 24 24 23 22 22 21 21 20 19 18 17 17 16 16 15 15 15 14 14 14 14 14 14 15 15 15 15 15 15 15 15 15 14 14 14 14 14 14 14 14 14 15
24 24 23 23 22 22 21 21 20 19 18 17 16 16 15 15 15 14 14 13 13 13 13 14 14 14 14 15 15 14 14 14 14 14 13 13 13 13 13 14 14 14 14
23 23 23 23 22 22 21 20 20 19 18 17 16 16 15 15 14 14 13 13 12 12 13 13 13 14 14 14 14 14 14 14 13 13 13 13 13 13 13 14 14 14 14
23 23 23 22 22 21 21 20 20 19 18 17 16 15 15 14 14 13 13 12 12 12 12 12 13 13 13 14 14 14 13 13 13 13 13 13 13 13 13 14 14 14 14
21 22 22 22 22 21 21 20 20 19 18 17 16 15 14 14 13 13 12 12 12 12 12 12 12 13 13 13 13 13 13 13 13 12 12 13 13 13 13 14 14 14 14
19 19 20 20 20 20 20 20 20 19 18 16 16 15 14 14 13 13 12 12 12 11 11 12 12 12 12 12 13 12 12 12 12 12 12 12 13 13 13 14 14 14 13
17 17 17 18 18 19 19 19 19 19 18 17 16 15 14 14 13 12 12 12 11 11 11 11 12 12 12 12 12 12 12 12 12 12 12 12 13 13 13 14 14 13 13
14 15 15 16 17 17 17 18 18 18 18 17 16 15 14 14 13 12 12 12 11 11 11 11 11 11 11 11 11 11 11 11 11 12 12 12 13 13 13 13 13 13 13
13 13 14 14 15 15 16 16 17 18 18 17 16 15 14 14 13 12 12 12 11 11 11 11 11 11 11 11 11 11 11 11 11 12 12 12 12 12 12 12 12 13 13
11 12 12 12 13 13 14 15 16 17 17 17 16 15 14 14 13 12 12 12 11 11 11 11 11 11 11 11 11 11 11 11 11 12 12 12 12 12 12 12 12 12 12
11 11 11 11 11 12 13 14 15 15 16 16 16 15 14 14 13 12 12 11 11 11 11 11 11 11 11 11 11 11 11 11 11 11 11 11 11 11 11 12 12 11 11
10 10 10 10 10 11 11 12 13 14 15 15 15 15 14 14 13 12 12 12 11 11 11 11 11 11 11 11 11 11 11 11 11 11 11 11 11 11 11 11 11 11 11
10 10 10 10 10 10 10 10 11 12 12 13 14 15 14 14 13 13 12 12 11 11 11 11 11 11 11 11 11 11 11 11 11 11 11 11 11 11 11 11 11 11 11
10 10 10 10 10 9 9 9 9 10 10 11 12 13 14 14 13 13 12 12 11 11 11 11 11 11 11 11 11 11 11 11 11 11 11 11 10 10 11 11 11 11 11
10 10 10 9 9 9 9 9 9 9 9 10 11 12 13 13 13 13 12 12 11 11 11 11 11 11 11 11 11 11 11 11 11 11 11 10 10 10 10 10 10 10 10
10 10 10 9 9 9 9 8 8 8 8 9 10 11 12 13 13 13 12 12 11 11 11 12 12 11 11 11 11 11 11 11 11 11 11 10 10 10 10 10 10 10 9
10 10 9 9 9 9 9 8 8 8 8 8 9 10 11 12 12 13 13 12 11 11 11 11 12 12 11 11 11 11 11 11 11 11 10 10 10 10 10 10 9 9 9
10 10 9 9 9 9 9 8 8 7 7 8 8 9 10 11 12 12 13 12 12 12 12 12 12 12 12 12 11 11 11 11 11 11 10 10 10 10 9 9 9 9 9
9 9 9 9 9 9 8 8 8 7 7 7 8 8 9 10 11 12 12 12 12 12 12 12 12 12 12 12 11 11 11 11 11 11 10 10 10 10 9 9 9 9 9